STARLINK-4542 (53435 NORAD) Tracking and Keplerian Element Data

This shows tracking and keplerian element data for the satellite.

Feedback or suggestion? Click here.




ElementValue
Catalog53435
NameSTARLINK-4542
Epoch Orbit1648
Epoch Day325.33334491
Epoch Year2022
RAAN110.4579
Inclination53.2168
Eccentricity0.0001204
Argument of Perigee90.1497
Mean Anonmoly143.765
Mean Motion15.08824751
Decay Rate0.00024113
L11 53435U 22097AZ 22325.33334491 .00024113 00000+0 15286-2 0 9998
L22 53435 53.2168 110.4579 0001204 90.1497 143.7650 15.08824751 16487



Live tracking and technical data element details for STARLINK-4542 (NORAD 53435). STARLINK-4542 can be tracked NOW for your location showing map with azimuth and elevation plus other details from your city location.







IsCatalogInMostPopularTable: catalog: 53435, numindb: 6
Update: records affected: 1



GetName: 53435 STARLINK-4542

Hit Count: updated at: Thu, 08 Dec 2022 18:43:02 GMT